This demonstration page uses our WeatherBlox Daily Observations layout. Learn more.

Hourly Observations for May 9, 2017

Temp ( °F °C ) Dew Point ( °F °C ) Humidity (%) Winds ( mph kmh ) Pressure ( in mb ) Visibility ( mi km ) Precip ( " mm )
12:15 am 00:15 Clear 63 17.1 53 11.5 70 70 ENE 8 13 29.97 1015 10 16.09344 0 0
12:35 am 00:35 Mostly Cloudy 62 16.6 53 11.5 72 72 ENE 6 9 30 1016 10 16.09344 0 0
12:55 am 00:55 Cloudy 62 16.6 53 11.5 72 72 E 7 11 30 1016 10 16.09344 0 0
1:15 am 01:15 Mostly Cloudy 61 16 53 11.5 75 75 ENE 6 9 30 1016 10 16.09344 0 0
1:35 am 01:35 Cloudy 60 15.8 53 11.6 76 76 ENE 5 7 30 1016 10 16.09344 0 0
1:55 am 01:55 Mostly Cloudy 60 15.6 53 11.5 77 77 Calm 30 1016 10 16.09344 0 0
2:15 am 02:15 Cloudy 60 15.5 53 11.7 78 78 Calm 30 1016 10 16.09344 0 0
2:35 am 02:35 Mostly Cloudy 59 15 53 11.7 81 81 NNE 3 6 30 1016 10 16.09344 0 0
2:55 am 02:55 Partly Cloudy 59 15 52 11.3 79 79 N 3 6 30 1016 10 16.09344 0 0
3:15 am 03:15 Partly Cloudy 58 14.3 52 11.3 82 82 N 6 9 29.97 1015 10 16.09344 0 0
3:35 am 03:35 Clear 57 13.7 52 11 84 84 NNW 6 9 30 1016 10 16.09344 0 0
3:55 am 03:55 Mostly Cloudy 57 14 52 11.2 83 83 NNW 12 19 30 1016 10 16.09344 0 0
4:15 am 04:15 Mostly Cloudy 59 15 49 9.7 71 71 NNW 10 17 30 1016 10 16.09344 0 0
4:35 am 04:35 Cloudy 60 15.5 48 8.9 65 65 N 10 17 30 1016 10 16.09344 0 0
4:55 am 04:55 Cloudy 60 15.3 47 8.5 64 64 N 10 17 30 1016 10 16.09344 0 0
5:15 am 05:15 Partly Cloudy 58 14.4 47 8.2 67 67 N 8 13 30 1016 10 16.09344 0 0
5:35 am 05:35 Clear 56 13.5 47 8.2 71 71 N 7 11 30 1016 10 16.09344 0 0
5:55 am 05:55 Clear 56 13.1 47 8.2 72 72 NNE 8 13 30.03 1017 10 16.09344 0 0
6:15 am 06:15 Clear 55 12.9 47 8.1 73 73 NNE 6 9 30.03 1017 10 16.09344 0 0
6:35 am 06:35 Sunny 54 12.3 47 8.1 76 76 NNE 6 9 30.03 1017 10 16.09344 0 0
6:55 am 06:55 Sunny 55 12.7 47 8.5 76 76 NE 9 15 30 1016 10 16.09344 0 0
7:15 am 07:15 Sunny 56 13.5 48 9 74 74 ENE 12 19 29.97 1015 10 16.09344 0 0
7:35 am 07:35 Sunny 58 14.2 48 8.9 71 71 ENE 17 28 29.97 1015 10 16.09344 0 0
7:55 am 07:55 Sunny 58 14.3 47 8.6 69 69 ENE 16 26 29.97 1015 10 16.09344 0 0
8:15 am 08:15 Sunny 58 14.3 47 8.4 68 68 ENE 17 28 29.97 1015 10 16.09344 0 0
8:35 am 08:35 Sunny 58 14.5 46 8 65 65 ENE 17 28 29.97 1015 10 16.09344 0 0
8:55 am 08:55 Sunny 58 14.7 47 8.2 65 65 E 10 17 30 1016 10 16.09344 0 0
9:15 am 09:15 Sunny 59 15 47 8.4 65 65 E 15 24 30 1016 10 16.09344 0 0
9:35 am 09:35 Sunny 60 15.8 47 8.2 61 61 ENE 14 22 30 1016 10 16.09344 0 0
9:55 am 09:55 Sunny 60 15.8 47 8.3 61 61 E 12 19 30 1016 10 16.09344 0 0
10:15 am 10:15 Sunny 63 17 47 8.4 57 57 ENE 12 19 29.97 1015 10 16.09344 0 0
10:35 am 10:35 Sunny 63 17 48 8.8 59 59 ENE 9 15 29.97 1015 10 16.09344 0 0
10:55 am 10:55 Partly Cloudy 63 17.3 48 8.8 58 58 E 13 20 29.97 1015 10 16.09344 0 0
11:15 am 11:15 Partly Cloudy 64 17.8 48 8.8 56 56 ENE 15 24 29.97 1015 10 16.09344 0 0
11:35 am 11:35 Sunny 66 18.7 49 9.2 54 54 E 9 15 29.97 1015 10 16.09344 0 0
11:55 am 11:55 Partly Cloudy 67 19.3 49 9.3 53 53 ENE 9 15 29.97 1015 10 16.09344 0 0
12:15 pm 12:15 Partly Cloudy 68 19.9 49 9.6 52 52 ENE 12 19 29.97 1015 10 16.09344 0 0
12:35 pm 12:35 Partly Cloudy 67 19.6 49 9.2 51 51 E 12 19 29.97 1015 10 16.09344 0 0
12:55 pm 12:55 Mostly Cloudy 69 20.5 51 10.6 53 53 E 10 17 29.91 1013 10 16.09344 0 0
1:15 pm 13:15 Partly Cloudy 70 21 51 10.4 51 51 ESE 10 17 29.91 1013 10 16.09344 0 0
1:35 pm 13:35 Partly Cloudy 70 21 51 10.5 51 51 ENE 9 15 29.91 1013 10 16.09344 0 0
1:55 pm 13:55 Partly Cloudy 71 21.4 53 11.4 53 53 E 10 17 29.91 1013 10 16.09344 0 0
2:15 pm 14:15 Partly Cloudy 71 21.5 52 11 51 51 ENE 7 11 29.88 1012 10 16.09344 0 0
2:35 pm 14:35 Mostly Cloudy 71 21.6 53 11.5 53 53 ENE 9 15 29.88 1012 10 16.09344 0 0
2:55 pm 14:55 Partly Cloudy 71 21.6 52 10.9 51 51 ENE 7 11 29.88 1012 10 16.09344 0 0
3:15 pm 15:15 Mostly Cloudy 73 22.7 54 12 51 51 ENE 9 15 29.88 1012 10 16.09344 0 0
3:35 pm 15:35 Cloudy 70 21.1 52 11.3 54 54 ENE 6 9 29.88 1012 10 16.09344 0 0
3:55 pm 15:55 Cloudy 71 21.5 52 11.3 52 52 ENE 5 7 29.85 1011 10 16.09344 0 0
4:15 pm 16:15 Mostly Cloudy 73 22.6 54 12.1 52 52 E 8 13 29.85 1011 10 16.09344 0 0
4:35 pm 16:35 Mostly Cloudy 73 23 54 12.4 51 51 ENE 12 19 29.8 1009 10 16.09344 0 0
4:55 pm 16:55 Partly Cloudy 72 22.2 54 12.4 54 54 E 9 15 29.83 1010 10 16.09344 0 0
5:15 pm 17:15 Partly Cloudy 73 22.7 53 11.8 50 50 ENE 10 17 29.8 1009 10 16.09344 0 0
5:35 pm 17:35 Partly Cloudy 74 23.2 54 12.2 50 50 ENE 13 20 29.8 1009 10 16.09344 0 0
5:55 pm 17:55 Sunny 73 22.9 55 12.6 52 52 E 7 11 29.8 1009 10 16.09344 0 0
6:15 pm 18:15 Sunny 74 23.1 54 12 50 50 ENE 8 13 29.8 1009 10 16.09344 0 0
6:35 pm 18:35 Partly Cloudy 73 22.7 54 12.1 51 51 ENE 9 15 29.77 1008 10 16.09344 0 0
6:55 pm 18:55 Mostly Cloudy 71 21.5 55 12.5 57 57 E 9 15 29.8 1009 10 16.09344 0 0
7:15 pm 19:15 Partly Cloudy 70 21.2 53 11.9 56 56 ENE 12 19 29.8 1009 10 16.09344 0 0
7:35 pm 19:35 Sunny 69 20.5 53 11.7 57 57 ENE 9 15 29.8 1009 10 16.09344 0 0
7:55 pm 19:55 Sunny 69 20.6 51 10.7 53 53 NE 13 20 29.8 1009 10 16.09344 0 0
8:15 pm 20:15 Sunny 68 20 51 10.5 54 54 NE 13 20 29.8 1009 10 16.09344 0 0
8:35 pm 20:35 Sunny 67 19.4 50 10.2 55 55 ENE 12 19 29.8 1009 10 16.09344 0 0
8:55 pm 20:55 Clear 66 18.9 50 10.1 57 57 ENE 12 19 29.8 1009 10 16.09344 0 0
9:15 pm 21:15 Clear 65 18.2 50 10.1 59 59 ENE 12 19 29.83 1010 10 16.09344 0 0
9:35 pm 21:35 Clear 65 18.1 49 9.5 57 57 ENE 13 20 29.83 1010 10 16.09344 0 0
9:55 pm 21:55 Clear 64 17.7 48 9.1 57 57 ENE 13 20 29.85 1011 10 16.09344 0 0
10:15 pm 22:15 Clear 63 17.3 48 8.7 57 57 ENE 13 20 29.85 1011 10 16.09344 0 0
10:35 pm 22:35 Clear 62 16.8 47 8.4 58 58 ENE 10 17 29.85 1011 10 16.09344 0 0
10:55 pm 22:55 Clear 62 16.4 47 8.4 59 59 ENE 13 20 29.85 1011 10 16.09344 0 0
11:15 pm 23:15 Clear 61 16 47 8.2 60 60 ENE 12 19 29.83 1010 10 16.09344 0 0
11:35 pm 23:35 Clear 60 15.8 46 8 60 60 ENE 16 26 29.83 1010 10 16.09344 0 0
11:55 pm 23:55 Partly Cloudy with Nearby Thunderstorms 60 15.5 46 7.7 60 60 ENE 14 22 29.83 1010 10 16.09344 0 0

Powered by AerisWeather